Location: Hemaruka
(51.7801°N, 111.0917°W)
Time: 11:22:35
(UTC+00:00)

NOAA 15 - Pass Details

Date: 13 December 2023
Orbit: 797 x 810 km, 98.6° (Epoch: 02 March)

Event Time Altitude Azimuth Distance (km) Brightness Sun altitude
Rises 02:33:33 0° 179° (S) 3,313 7.8 -29.5°
Reaches altitude 10° 02:35:58 10° 185° (S) 2,385 7.1 -29.9°
Maximum altitude 02:41:04 50° 260° (W) 1,026 5.4 -30.6°
Drops below altitude 10° 02:46:13 10° 336° (NNW) 2,393 7.3 -31.4°
Sets 02:48:38 0° 342° (NNW) 3,326 8.0 -31.8°
